KB0DHM Weather Reports


Display with metric or nautical units.
time (UTC)temp
F
wind
direction
speed
MPH
gust
MPH
rain 1hr
in
rain 24hr
in
rain mn
in
humidity
%
barometer
mb
20260906183016 80 63 0.0 0.0 0.00 0.00 0.00 71 1017.6
20260906181518 80 63 0.0 0.0 0.00 0.00 0.00 70 1017.7
20260906180055 81 63 0.0 1.0 0.00 0.00 0.00 68 1017.5
20260906174554 81 63 0.0 0.0 0.00 0.00 0.00 69 1017.6
20260906173036 81 63 0.0 0.0 0.00 0.00 0.00 68 1017.6
20260906171531 80 63 0.0 0.0 0.00 0.00 0.00 70 1017.6
20260906170022 80 63 0.0 1.0 0.00 0.00 0.00 70 1017.9
20260906164511 80 63 0.0 0.0 0.00 0.00 0.00 70 1018.1
20260906163052 80 63 0.0 0.0 0.00 0.00 0.00 72 1018.1
20260906161550 79 63 0.0 0.0 0.00 0.00 0.00 73 1018.2
20260906160031 78 63 0.0 0.0 0.00 0.00 0.00 74 1018.2
20260906154530 78 63 0.0 1.0 0.00 0.00 0.00 74 1018.4
20260906153012 78 63 0.0 1.0 0.00 0.00 0.00 75 1018.4
20260906151509 77 64 0.0 0.0 0.00 0.00 0.00 76 1018.6
20260906150106 76 63 0.0 1.0 0.00 0.00 0.00 79 1018.6
20260906144545 75 64 0.0 1.0 0.00 0.00 0.00 79 1018.5
20260906143045 75 63 0.0 1.0 0.00 0.00 0.00 80 1018.4
20260906141524 75 63 0.0 0.0 0.00 0.00 0.00 82 1018.4
20260906140022 73 64 0.0 0.0 0.00 0.00 0.00 85 1018.5
20260906134505 72 63 0.0 0.0 0.00 0.00 0.00 86 1018.5
20260906133001 72 64 0.0 0.0 0.00 0.00 0.00 88 1018.4
20260906131543 70 64 0.0 0.0 0.00 0.00 0.00 90 1018.4
20260906130042 70 64 0.0 0.0 0.00 0.00 0.00 90 1018.4
20260906124524 69 64 0.0 0.0 0.00 0.00 0.00 91 1018.4
20260906123029 68 64 0.0 0.0 0.00 0.00 0.00 92 1018.3
20260906121506 67 63 0.0 0.0 0.00 0.00 0.00 93 1018.3
20260906120005 67 63 0.0 0.0 0.00 0.00 0.00 93 1018.4
20260906114557 67 63 0.0 0.0 0.00 0.00 0.00 93 1018.1
20260906113050 67 63 0.0 0.0 0.00 0.00 0.00 93 1018.0
20260906111530 67 64 0.0 0.0 0.00 0.00 0.00 92 1018.1
20260906110027 68 63 0.0 0.0 0.00 0.00 0.00 92 1018.0
20260906104505 68 63 0.0 0.0 0.00 0.00 0.00 91 1017.7
20260906103002 68 63 0.0 0.0 0.00 0.00 0.00 91 1017.5
20260906101543 69 63 0.0 0.0 0.00 0.00 0.00 90 1017.7
20260906100042 69 63 0.0 0.0 0.00 0.00 0.00 90 1017.7
20260906094520 69 63 0.0 0.0 0.00 0.00 0.00 89 1017.3
20260906093017 70 63 0.0 0.0 0.00 0.00 0.00 89 1017.0
20260906091558 70 63 0.0 0.0 0.00 0.00 0.00 89 1017.0
20260906090057 70 63 0.0 0.0 0.00 0.00 0.00 88 1016.8
20260906084539 70 64 0.0 0.0 0.00 0.00 0.00 88 1016.9
20260906083038 70 63 0.0 0.0 0.00 0.00 0.00 88 1016.8
20260906081519 70 63 0.0 0.0 0.00 0.00 0.00 88 1017.0
20260906080017 70 63 0.0 0.0 0.00 0.00 0.00 87 1016.9
20260906074601 71 63 0.0 0.0 0.00 0.00 0.00 87 1017.0
20260906073056 71 63 0.0 0.0 0.00 0.00 0.00 86 1017.0
20260906071536 71 63 0.0 0.0 0.00 0.00 0.00 85 1017.0
20260906070034 72 63 0.0 0.0 0.00 0.00 0.00 85 1017.3
20260906064514 72 64 0.0 0.0 0.00 0.00 0.00 84 1017.3
20260906063014 72 63 0.0 0.0 0.00 0.00 0.00 84 1017.3
20260906061559 72 63 0.0 0.0 0.00 0.00 0.00 84 1017.3
20260906060055 72 63 0.0 0.0 0.00 0.00 0.00 83 1017.2
20260906054537 73 63 0.0 0.0 0.00 0.00 0.00 83 1017.2
20260906053042 73 63 0.0 0.0 0.00 0.00 0.00 82 1017.2
20260906051524 73 63 0.0 0.0 0.00 0.00 0.00 82 1017.1
20260906050023 73 63 0.0 0.0 0.00 0.00 0.00 82 1017.3
20260906044521 74 63 0.0 0.0 0.00 0.00 0.00 81 1017.4
20260906043017 74 63 0.0 0.0 0.00 0.00 0.00 80 1017.4
20260906041523 75 63 0.0 0.0 0.00 0.00 0.00 79 1017.4
20260906040017 75 63 0.0 0.0 0.00 0.00 0.00 78 1017.4
20260906034515 76 63 0.0 0.0 0.00 0.00 0.00 76 1017.4
20260906033015 76 63 0.0 0.0 0.00 0.00 0.00 76 1017.4
20260906031600 76 63 0.0 0.0 0.00 0.00 0.00 76 1017.7
20260906030057 76 63 0.0 0.0 0.00 0.00 0.00 76 1017.6
20260906024542 77 63 0.0 0.0 0.00 0.00 0.00 75 1017.4
20260906023039 77 63 0.0 0.0 0.00 0.00 0.00 75 1017.4
20260906021520 78 65 0.0 0.0 0.00 0.00 0.00 74 1017.1
20260906020021 78 65 0.0 0.0 0.00 0.00 0.00 74 1016.9
20260906014501 78 66 0.0 0.0 0.00 0.00 0.00 73 1016.4
20260906013101 79 66 0.0 0.0 0.00 0.00 0.00 72 1016.0
20260906011542 80 66 0.0 0.0 0.00 0.00 0.00 70 1015.5
20260906010042 80 66 0.0 0.0 0.00 0.00 0.00 70 1015.4
20260906004525 81 66 0.0 0.0 0.00 0.00 0.00 69 1015.1
20260906003024 81 66 0.0 0.0 0.00 0.00 0.00 69 1015.0
20260906001506 81 66 0.0 1.0 0.00 0.00 0.00 68 1014.6
20260906000006 82 66 0.0 0.0 0.00 0.00 0.00 67 1014.8
20260905234602 82 66 0.0 0.0 0.00 0.00 0.00 65 1014.9
20260905233047 83 66 0.0 0.0 0.00 0.00 0.00 65 1014.9
20260905231535 83 66 0.0 0.0 0.00 0.00 0.00 64 1014.9
20260905230030 83 62 0.0 0.0 0.00 0.00 0.00 63 1015.0
20260905224512 83 62 0.0 1.0 0.00 0.00 0.00 63 1014.6
20260905223012 84 62 0.0 2.0 0.00 0.00 0.00 63 1014.6
20260905221557 84 63 0.0 0.0 0.00 0.00 0.00 62 1014.5
20260905220052 84 62 0.0 1.0 0.00 0.00 0.00 61 1014.7
20260905214535 83 60 0.0 0.0 0.00 0.00 0.00 64 1014.7
20260905213029 83 60 0.0 0.0 0.00 0.00 0.00 65 1015.0
20260905211519 83 60 0.0 2.0 0.00 0.00 0.00 65 1015.3
20260905210009 82 60 0.0 1.0 0.00 0.00 0.00 65 1015.3
20260905204556 82 60 0.0 1.0 0.00 0.00 0.00 68 1015.6
20260905203100 81 60 0.0 0.0 0.00 0.00 0.00 69 1016.0
20260905201554 81 60 0.0 0.0 0.00 0.00 0.00 69 1016.4
20260905200059 80 60 0.0 0.0 0.00 0.00 0.00 71 1016.5
20260905194550 80 60 0.0 1.0 0.00 0.00 0.00 69 1016.7
20260905193104 79 60 0.0 0.0 0.00 0.00 0.00 71 1017.0
20260905191544 78 60 0.0 0.0 0.00 0.00 0.00 74 1017.2
20260905190041 78 60 0.0 0.0 0.00 0.00 0.00 75 1017.1
20260905184525 77 60 0.0 0.0 0.00 0.00 0.00 76 1017.4